When you browse on this site, cookies collect data to enhance your experience and personalize the content and advertising you see.
Visit our Privacy Policy to learn more. By continuing to use the site, you agree to this use of cookies and data.
  • In Romania
  • List of Countries
  • For 7 days
  • Water Temperature
  • Weather Map
  • Weather Widgets
  • user-avatar
    Login

    Hourly Weather Wagadugu

    Today, 22 November, Friday

    Time Temperature Precipitation Wind Pressure Humidity
    00:00 +28°C° 0 mm 3 mps 732 mmHg 20%
    01:00 +28°C° 0 mm 2 mps 732 mmHg 21%
    02:00 +27°C° 0 mm 2 mps 731 mmHg 22%
    03:00 +26°C° 0 mm 1 mps 731 mmHg 24%
    04:00 +26°C° 0 mm 1 mps 731 mmHg 24%
    05:00 +26°C° 0 mm 2 mps 731 mmHg 23%
    06:00 +26°C° 0 mm 2 mps 732 mmHg 23%
    07:00 +28°C° 0 mm 3 mps 732 mmHg 21%
    08:00 +31°C° 0 mm 3 mps 733 mmHg 20%
    09:00 +34°C° 0 mm 4 mps 733 mmHg 18%
    10:00 +36°C° 0 mm 4 mps 733 mmHg 16%
    11:00 +37°C° 0 mm 4 mps 732 mmHg 14%
    12:00 +40°C° 0 mm 4 mps 732 mmHg 12%
    13:00 +41°C° 0 mm 4 mps 731 mmHg 12%
    14:00 +41°C° 0 mm 4 mps 731 mmHg 11%
    15:00 +42°C° 0 mm 4 mps 730 mmHg 11%
    16:00 +38°C° 0 mm 4 mps 730 mmHg 13%
    17:00 +36°C° 0 mm 3 mps 730 mmHg 14%
    18:00 +34°C° 0 mm 3 mps 731 mmHg 16%
    19:00 +33°C° 0 mm 3 mps 731 mmHg 17%
    20:00 +33°C° 0 mm 3 mps 732 mmHg 17%
    21:00 +31°C° 0 mm 3 mps 732 mmHg 18%
    22:00 +30°C° 0 mm 2 mps 732 mmHg 19%
    23:00 +29°C° 0 mm 2 mps 732 mmHg 20%

    Tomorrow, 23 November, Saturday

    Time Temperature Precipitation Wind Pressure Humidity
    00:00 +28°C° 0 mm 2 mps 732 mmHg 21%
    01:00 +28°C° 0 mm 2 mps 732 mmHg 22%
    02:00 +28°C° 0 mm 2 mps 731 mmHg 22%
    03:00 +27°C° 0 mm 2 mps 731 mmHg 23%
    04:00 +27°C° 0 mm 2 mps 731 mmHg 24%
    05:00 +27°C° 0 mm 3 mps 731 mmHg 24%
    06:00 +26°C° 0 mm 3 mps 732 mmHg 25%
    07:00 +29°C° 0 mm 4 mps 732 mmHg 23%
    08:00 +32°C° 0 mm 4 mps 733 mmHg 20%
    09:00 +34°C° 0 mm 5 mps 733 mmHg 18%
    10:00 +36°C° 0 mm 5 mps 733 mmHg 16%
    11:00 +39°C° 0 mm 5 mps 732 mmHg 14%
    12:00 +41°C° 0 mm 6 mps 732 mmHg 12%
    13:00 +41°C° 0 mm 5 mps 731 mmHg 12%
    14:00 +41°C° 0 mm 5 mps 731 mmHg 12%
    15:00 +42°C° 0 mm 4 mps 730 mmHg 12%
    16:00 +38°C° 0 mm 3 mps 730 mmHg 14%
    17:00 +36°C° 0 mm 3 mps 730 mmHg 16%
    18:00 +32°C° 0 mm 2 mps 730 mmHg 18%
    19:00 +31°C° 0 mm 1 mps 730 mmHg 20%
    20:00 +30°C° 0 mm 1 mps 731 mmHg 21%
    21:00 +29°C° 0 mm 1 mps 731 mmHg 23%
    22:00 +29°C° 0 mm 1 mps 731 mmHg 22%
    23:00 +29°C° 0 mm 2 mps 731 mmHg 22%

    Day after tomorrow, 24 November, Sunday

    Time Temperature Precipitation Wind Pressure Humidity
    00:00 +29°C° 0 mm 2 mps 731 mmHg 21%
    01:00 +29°C° 0 mm 2 mps 731 mmHg 21%
    02:00 +29°C° 0 mm 2 mps 731 mmHg 22%
    03:00 +28°C° 0 mm 3 mps 730 mmHg 22%
    04:00 +28°C° 0 mm 3 mps 731 mmHg 23%
    05:00 +27°C° 0 mm 3 mps 731 mmHg 23%
    06:00 +27°C° 0 mm 3 mps 731 mmHg 24%
    07:00 +29°C° 0 mm 4 mps 732 mmHg 22%
    08:00 +32°C° 0 mm 4 mps 732 mmHg 19%
    09:00 +34°C° 0 mm 5 mps 733 mmHg 17%
    10:00 +36°C° 0 mm 5 mps 733 mmHg 16%
    11:00 +39°C° 0 mm 5 mps 732 mmHg 14%
    12:00 +41°C° 0 mm 5 mps 732 mmHg 12%
    13:00 +41°C° 0 mm 4 mps 731 mmHg 12%
    14:00 +41°C° 0 mm 4 mps 730 mmHg 11%
    15:00 +42°C° 0 mm 4 mps 730 mmHg 11%
    16:00 +38°C° 0 mm 3 mps 730 mmHg 13%
    17:00 +36°C° 0 mm 3 mps 730 mmHg 15%
    18:00 +34°C° 0 mm 2 mps 730 mmHg 17%
    19:00 +32°C° 0 mm 2 mps 730 mmHg 19%
    20:00 +31°C° 0 mm 2 mps 731 mmHg 20%
    21:00 +30°C° 0 mm 2 mps 731 mmHg 22%
    22:00 +30°C° 0 mm 2 mps 731 mmHg 22%
    23:00 +29°C° 0 mm 2 mps 731 mmHg 22%

    25 November, Monday

    Time Temperature Precipitation Wind Pressure Humidity
    00:00 +29°C° 0 mm 2 mps 731 mmHg 22%
    01:00 +29°C° 0 mm 2 mps 731 mmHg 22%
    02:00 +28°C° 0 mm 2 mps 731 mmHg 21%
    03:00 +28°C° 0 mm 2 mps 730 mmHg 21%
    04:00 +27°C° 0 mm 3 mps 731 mmHg 21%
    05:00 +27°C° 0 mm 3 mps 731 mmHg 22%
    06:00 +26°C° 0 mm 3 mps 731 mmHg 22%
    07:00 +29°C° 0 mm 3 mps 732 mmHg 20%
    08:00 +32°C° 0 mm 4 mps 732 mmHg 18%
    09:00 +34°C° 0 mm 5 mps 733 mmHg 15%
    10:00 +36°C° 0 mm 5 mps 732 mmHg 14%
    11:00 +38°C° 0 mm 4 mps 732 mmHg 13%
    12:00 +41°C° 0 mm 4 mps 731 mmHg 11%
    13:00 +41°C° 0 mm 4 mps 731 mmHg 11%
    14:00 +42°C° 0 mm 4 mps 730 mmHg 11%
    15:00 +42°C° 0 mm 4 mps 730 mmHg 11%
    16:00 +40°C° 0 mm 4 mps 730 mmHg 13%
    17:00 +36°C° 0 mm 3 mps 730 mmHg 14%
    18:00 +34°C° 0 mm 2 mps 730 mmHg 16%
    19:00 +32°C° 0 mm 2 mps 730 mmHg 17%
    20:00 +31°C° 0 mm 2 mps 731 mmHg 17%
    21:00 +30°C° 0 mm 2 mps 731 mmHg 18%
    22:00 +30°C° 0 mm 2 mps 731 mmHg 18%
    23:00 +29°C° 0 mm 2 mps 731 mmHg 18%

    26 November, Tuesday

    Time Temperature Precipitation Wind Pressure Humidity
    00:00 +28°C° 0 mm 2 mps 731 mmHg 18%
    01:00 +28°C° 0 mm 2 mps 731 mmHg 19%
    02:00 +27°C° 0 mm 2 mps 730 mmHg 19%
    03:00 +26°C° 0 mm 2 mps 730 mmHg 20%
    04:00 +26°C° 0 mm 2 mps 730 mmHg 20%
    05:00 +26°C° 0 mm 3 mps 731 mmHg 20%
    06:00 +26°C° 0 mm 3 mps 731 mmHg 20%
    07:00 +28°C° 0 mm 3 mps 732 mmHg 18%
    08:00 +32°C° 0 mm 4 mps 732 mmHg 17%
    09:00 +34°C° 0 mm 4 mps 733 mmHg 15%
    10:00 +36°C° 0 mm 4 mps 732 mmHg 13%
    11:00 +38°C° 0 mm 4 mps 732 mmHg 12%
    12:00 +41°C° 0 mm 4 mps 731 mmHg 11%
    13:00 +41°C° 0 mm 4 mps 731 mmHg 10%
    14:00 +41°C° 0 mm 4 mps 730 mmHg 10%
    15:00 +42°C° 0 mm 4 mps 729 mmHg 9%
    16:00 +38°C° 0 mm 3 mps 730 mmHg 11%
    17:00 +36°C° 0 mm 3 mps 730 mmHg 13%
    18:00 +32°C° 0 mm 2 mps 730 mmHg 15%
    19:00 +31°C° 0 mm 2 mps 730 mmHg 16%
    20:00 +30°C° 0 mm 1 mps 730 mmHg 17%
    21:00 +29°C° 0 mm 1 mps 731 mmHg 18%
    22:00 +29°C° 0 mm 1 mps 731 mmHg 18%
    23:00 +28°C° 0 mm 2 mps 731 mmHg 18%

    27 November, Wednesday

    Time Temperature Precipitation Wind Pressure Humidity
    00:00 +28°C° 0 mm 2 mps 731 mmHg 18%
    01:00 +28°C° 0 mm 2 mps 731 mmHg 18%
    02:00 +28°C° 0 mm 3 mps 730 mmHg 18%
    03:00 +28°C° 0 mm 3 mps 730 mmHg 18%
    04:00 +27°C° 0 mm 3 mps 730 mmHg 18%
    05:00 +27°C° 0 mm 3 mps 730 mmHg 19%
    06:00 +26°C° 0 mm 3 mps 730 mmHg 20%
    07:00 +28°C° 0 mm 3 mps 731 mmHg 18%
    08:00 +31°C° 0 mm 3 mps 732 mmHg 16%
    09:00 +34°C° 0 mm 4 mps 732 mmHg 14%
    10:00 +36°C° 0 mm 4 mps 732 mmHg 12%
    11:00 +38°C° 0 mm 4 mps 731 mmHg 11%
    12:00 +41°C° 0 mm 5 mps 731 mmHg 10%
    13:00 +42°C° 0 mm 5 mps 730 mmHg 9%
    14:00 +42°C° 0 mm 5 mps 730 mmHg 9%
    15:00 +42°C° 0 mm 5 mps 729 mmHg 9%
    16:00 +38°C° 0 mm 4 mps 729 mmHg 11%
    17:00 +35°C° 0 mm 2 mps 729 mmHg 13%
    18:00 +32°C° 0 mm 1 mps 729 mmHg 15%
    19:00 +30°C° 0 mm 1 mps 730 mmHg 16%
    20:00 +29°C° 0 mm 1 mps 730 mmHg 17%
    21:00 +28°C° 0 mm 1 mps 731 mmHg 18%
    22:00 +28°C° 0 mm 1 mps 731 mmHg 18%
    23:00 +28°C° 0 mm 1 mps 731 mmHg 18%
    Show more